User: anonymous   Login
Location: Bishop�s Knoyle
(51.0728°N, 2.1714°W)
Time: 10:25:51
(UTC+00:00)
Language:

Cosmos 1655 Rocket - Orbit

View from above orbital plane
View from above orbital plane
View from above satellite
View from above satellite

Ground track
Ground track

The orbit data is extracted from the following two-line orbital elements,

1 15752U 85041B   20329.60468249 -.00000003 +00000-0 -19431-4 0  9990
2 15752 082.9487 099.7507 0023272 234.2750 125.6240 13.73112723778031
Epoch (UTC): 24 November 2020 14:30:44
Eccentricity: 0.0023272
inclination: 82.9487°
perigee height: 971 km
apogee height: 1005 km
right ascension of ascending node: 99.7507°
argument of perigee: 234.2750°
revolutions per day: 13.73112723
mean anomaly at epoch: 125.6240°
orbit number at epoch: 77803

The dashed part of the orbit path shows where the satellite is in the earth's shadow,  

DLR